FENGYUN 1C DEB, 33673

Orbit data source: Space-Track

FENGYUN 1C DEB, 33673 is space debris in SSO originally from a launch on Mon, 10 May 1999 UTC launched from the Taiyaun Space Center, China (TSC). Fengyun 1C debris stems from the Chinese weather satellite Fengyun-1C, which was intentionally destroyed by a Chinese anti-satellite missile in 2007. This event dramatically increased the amount of space debris, with thousands of trackable fragments posing hazards to satellites and human spaceflight. The Fengyun 1C debris cloud has become a focal point in discussions about space sustainability and the need for international regulations to prevent the creation of new debris.

Loading next visibility...
Identifier
33673, 1999-025DFJ
Orbit
SSO
Country
Flag of CNCN / PRC
Related business
Manufacturer
Unknown
Mission
Spacecraft
Bus & Motor
Unknown
Mass
Unknown
Launch date (UTC)
1999-05-10 (27 years ago)
Launch vehicle
Unknown
Launch site
Taiyaun Space Center, China (TSC)
Object type
Payload
Rocket body
Debris
Shape & HBR
Unknown shape, 0.1 m
Radar Cross Section
Medium (>0.1 m² and <1 m²)

Expand to show TLE details & history
Last TLE update: 1 day ago

TLE from 1 day ago
0 FENGYUN 1C DEB
1 33673U 99025DFJ 26264.11283258  .00000433  00000-0  33432-3 0  9995
2 33673  99.3163 319.4167 0105113 176.0927 214.1296 13.95926399938415
Epoch: 2026-09-21T02:42Z
TLE epoch observation values (Epoch: 2026-09-21T02:42:28.734Z)
Latitude
29.1735°
Longitude
-86.42776°
Altitude
975.167 km
Speed
7.334 km/s
True Right ascension
20h 56m 45s
True Declination
29° 01' 54"
Sunlit
Object was in full shadow at epoch
Visualization orbit readout
Latitude
Unknown
Longitude
Unknown
Altitude
Unknown
Speed
Unknown
Apparent Right ascension
Unknown
Apparent Declination
Unknown
Sunlit
N/A
Visualization observer readout
Local Sidereal Time
22:50:14
Azimuth
Unknown
Elevation
Unknown
Doppler factor
Unknown
Orbital elements
Apogee altitude
981.713 km
Perigee altitude
828.599 km
Semi-major axis
7,283.293 km
Eccentricity
0.01051
Inclination
99.3163°
RAAN
319.4167°
Arg. of periapsis
176.0927°
True anomaly
213.46108°
Mean anomaly
214.1296°
Eccentric anomaly
213.79462°
Mean motion
3.49182 °/min
Orbital period
103.1 mins
BSTAR
0.00033432
Loading maneuver chart data...
Computing Atmospheric mass density...

Documentation

Showing up to 5 results
|